Location: Carrigahorig
(53.0625°N, 8.1439°W)
Time: 23:35:39
(UTC+00:00)

Cosmos 2219 Rocket - Pass Details

Date: 15 May 2026
Orbit: 825 x 846 km, 71.0° (Epoch: 11 June)

Event Time Altitude Azimuth Distance (km) Brightness Sun altitude
Rises 23:39:39 0° 321° (NW) 3,407 6.5 -17.1°
Reaches altitude 10° 23:42:32 10° 308° (NW) 2,470 5.3 -17.2°
Maximum altitude 23:46:54 23° 258° (WSW) 1,710 3.8 -17.3°
Enters shadow 23:49:51 16° 218° (SW) 2,092 3.9 -17.4°
